Weather History for Air Force Academy, CO

Change the Weather History Date:

Sunday, April 22, 2012

  Actual Average Record
Temperature  
Mean Temperature 50 °F -  
Max Temperature 66 °F 54 °F 75 °F (2006)
Min Temperature 35 °F 31 °F 20 °F (2013)
Degree Days  
Heating Degree Days 15    
Moisture  
Dew Point 33 °F    
Average Humidity 50    
Maximum Humidity 87    
Minimum Humidity 28    
Precipitation  
Precipitation 0.00 in - - ()
Sea Level Pressure  
Sea Level Pressure 30.09 in    
Wind  
Wind Speed 7 mph (SSE)    
Max Wind Speed 15 mph    
Max Gust Speed 17 mph    
Visibility 10 miles    
Events      
Averages and records for this station are not official NWS values.
T = Trace of Precipitation, MM = Missing Value Source: NWS Daily Summary

Daily Weather History Graph

Daily Weather History Graph

Search for Another Location

Airport:

Trip Planner

Search our weather history database for the weather conditions in past years. The results will help you decide how hot, cold, wet, or windy it might be!

Date:

Astronomy

Apr. 22, 2012 Rise Set
Actual Time 6:12 AM MDT 7:43 PM MDT
Civil Twilight 5:44 AM MDT 8:11 PM MDT
Nautical Twilight 5:10 AM MDT 8:45 PM MDT
Astronomical Twilight 4:34 AM MDT 9:21 PM MDT
Moon 6:45 AM MDT (4/22) 9:21 PM MDT (4/22)
Length of Visible Light 14h 27m
Length of Day
13h 31m
New Moon, 2% of the Moon is Illuminated
Apr 22
New Moon
Apr 29
First Quarter
May 5
Full
May 12
Last Quarter
May 20
New

Hourly Weather History & Observations

Time (MDT) Temp. Windchill Dew Point Humidity Pressure Visibility Wind Dir Wind Speed Gust Speed Precip Events Conditions
12:55 AM 49.6 °F - 33.6 °F 54% 30.06 in 10.0 mi South 5.8 mph - N/A   Partly Cloudy
1:55 AM 49.5 °F - 34.2 °F 56% 30.07 in 10.0 mi Calm Calm - N/A   Clear
2:55 AM 45.3 °F 41.6 °F 34.7 °F 66% 30.05 in 10.0 mi SSE 6.9 mph - N/A   Clear
3:55 AM 42.6 °F 40.9 °F 33.8 °F 71% 30.08 in 10.0 mi ENE 3.5 mph - N/A   Clear
4:55 AM 37.9 °F 33.5 °F 32.5 °F 81% 30.09 in 10.0 mi North 5.8 mph - N/A   Clear
5:55 AM 36.0 °F 31.1 °F 31.6 °F 84% 30.10 in 10.0 mi NNW 5.8 mph - N/A   Clear
6:55 AM 35.8 °F 30.1 °F 32.4 °F 87% 30.13 in 10.0 mi North 6.9 mph - N/A   Clear
7:55 AM 44.6 °F 43.1 °F 33.1 °F 64% 30.12 in 10.0 mi Variable 3.5 mph - N/A   Clear
8:55 AM 51.8 °F - 32.5 °F 48% 30.13 in 10.0 mi SSE 11.5 mph - N/A   Clear
9:55 AM 54.0 °F - 32.9 °F 45% 30.13 in 10.0 mi South 10.4 mph - N/A   Clear
10:55 AM 56.5 °F - 33.4 °F 42% 30.12 in 10.0 mi South 8.1 mph - N/A   Clear
11:55 AM 59.4 °F - 33.4 °F 38% 30.10 in 10.0 mi South 5.8 mph - N/A   Clear
12:55 PM 63.0 °F - 32.9 °F 32% 30.08 in 10.0 mi SSE 10.4 mph 17.3 mph N/A   Clear
1:55 PM 64.0 °F - 32.7 °F 31% 30.06 in 10.0 mi South 9.2 mph - N/A   Partly Cloudy
2:55 PM 65.3 °F - 30.9 °F 28% 30.06 in 10.0 mi South 11.5 mph - N/A   Clear
3:55 PM 64.4 °F - 30.0 °F 28% 30.06 in 10.0 mi South 15.0 mph - N/A   Clear
4:55 PM 64.9 °F - 33.8 °F 31% 30.05 in 10.0 mi SSW 15.0 mph - N/A   Clear
5:55 PM 63.5 °F - 31.8 °F 31% 30.07 in 10.0 mi SSE 15.0 mph - N/A   Partly Cloudy
6:55 PM 62.1 °F - 31.6 °F 32% 30.10 in 10.0 mi South 12.7 mph - N/A   Clear
7:55 PM 58.3 °F - 31.8 °F 37% 30.08 in 10.0 mi SSE 6.9 mph - N/A   Clear
8:55 PM 55.0 °F - 32.4 °F 42% 30.09 in 10.0 mi Calm Calm - N/A   Clear
9:55 PM 47.8 °F - 34.2 °F 59% 30.12 in 10.0 mi NNE 3.5 mph - N/A   Clear
10:55 PM 49.8 °F - 34.0 °F 55% 30.11 in 10.0 mi SSE 5.8 mph - N/A   Clear
11:55 PM 45.7 °F 42.7 °F 34.7 °F 65% 30.10 in 10.0 mi NW 5.8 mph - N/A   Clear